This is the latest recevied weather packets stored in our database for station/object LU1MQF-13. If no packets are shown the sender has not sent any weather packets the latest 10 day(s).
| Time | Temp. | Humidity | Pressure | Rain* | Wind** | Luminosity | Snow |
|---|---|---|---|---|---|---|---|
| 1777685220 | 16.11° C | 35% | 946.7 hPa | - | - | - | - |
| 1777684319 | 16.11° C | 35% | 946.3 hPa | - | - | - | - |
| 1777683420 | 17.22° C | 35% | 946 hPa | - | - | - | - |
| 1777681621 | 17.22° C | 37% | 945.5 hPa | - | - | - | - |
| 1777680723 | 17.22° C | 40% | 945.3 hPa | - | - | - | - |
| 1777679820 | 17.22° C | 50% | 944.9 hPa | - | - | - | - |
| 1777678920 | 17.22° C | 40% | 944.5 hPa | - | - | - | - |
| 1777678021 | 17.22° C | 35% | 944.2 hPa | - | - | - | - |
| 1777677119 | 17.22° C | 38% | 943.8 hPa | - | - | - | - |
| 1777676219 | 17.78° C | 46% | 943.6 hPa | - | - | - | - |
| 1777675320 | 17.78° C | 38% | 943.1 hPa | - | - | - | - |
| 1777674419 | 17.78° C | 24% | 942.6 hPa | - | - | - | - |
| 1777673520 | 18.89° C | 25% | 942.1 hPa | - | - | - | - |
| 1777672619 | 18.89° C | 25% | 941.7 hPa | - | - | - | - |
| 1777671720 | 18.89° C | 24% | 941.1 hPa | - | - | - | - |
| 1777670820 | 18.89° C | 24% | 940.9 hPa | - | - | - | - |
| 1777669921 | 18.89° C | 24% | 940.5 hPa | - | - | - | - |
| 1777669019 | 20° C | 24% | 940.4 hPa | - | - | - | - |
| 1777668119 | 20° C | 23% | 940 hPa | - | - | - | - |
| 1777667219 | 20° C | 24% | 939.8 hPa | - | - | - | - |
| 1777666319 | 20° C | 24% | 939.5 hPa | - | - | - | - |
| 1777665419 | 20° C | 21% | 939.2 hPa | - | - | - | - |
| 1777664519 | 20° C | 21% | 938.9 hPa | - | - | - | - |
| 1777663619 | 20° C | 22% | 938.7 hPa | - | - | - | - |
| 1777662719 | 21.11° C | 20% | 938.5 hPa | - | - | - | - |
* Rain since midnight (hover to see other rain measurements)
** Current wind speed in m/s (hover to see current wind gust speed)